STARLINK-36590, 67577

Orbit data source: Space-Track

STARLINK-36590, 67577 is a payload satellite owned by SpaceX/Seattle (US) in SSO that was launched on Sun, 25 Jan 2026 UTC via an FALCON 9 launch vehicle from the Air Force Western Test Range (AFWTR). Payload-class satellites include a variety of spacecraft equipped with specific instruments for various scientific and technological missions. These include communications satellites like Starlink; space stations such as the ISS; scientific satellites like the Hubble; Earth observation satellites from companies like Planet Labs, Umbra, and HawkEye 360; GPS; miniature CubeSats for education and research; and military/defense satellites.

Loading next visibility...
Identifier
67577, 2026-016S
Orbit
SSO
Country
Flag of USUS
Related business
Manufacturer
SpaceX/Seattle
Mission
Operational spacecraft
Bus & Motor
STARLINK V2MO, Unknown motor
Mass
575 kg wet, ~530 kg dry
Launch date (UTC)
2026-01-25 (2 weeks ago)
Launch vehicle
FALCON 9
Launch site
Air Force Western Test Range (AFWTR)
Object type
Payload
Rocket body
Debris
Shape & HBR
Unknown shape, 17.7 m
Radar Cross Section
RCS unknown

Expand to show TLE details & history
Last TLE update: 11 hours ago

TLE from 11 hours ago
0 STARLINK-36590
1 67577U 26016S   26039.91670139  .00029820  00000-0  15586-3 0  9992
2 67577  97.2761  98.9318 0001542 107.2063 147.8579 15.80820025  3426
Epoch: 2026-02-08T22:00Z
TLE epoch observation values (Epoch: 2026-02-08T22:00:03.000Z)
Latitude
-73.56013°
Longitude
144.41521°
Altitude
355.995 km
Speed
7.693 km/s
True Right ascension
16h 53m 47s
True Declination
-73° 27' 39"
Sunlit
Object was in daylight at epoch
Visualization orbit readout
Latitude
Unknown
Longitude
Unknown
Altitude
Unknown
Speed
Unknown
Apparent Right ascension
Unknown
Apparent Declination
Unknown
Sunlit
N/A
Visualization observer readout
Local Sidereal Time
11:24:58
Azimuth
Unknown
Elevation
Unknown
Doppler factor
Unknown
Orbital elements
Apogee altitude
326.034 km
Perigee altitude
323.966 km
Semi-major axis
6,703.137 km
Eccentricity
0.00015
Inclination
97.2761°
RAAN
98.9318°
Arg. of periapsis
107.2063°
True anomaly
147.8673°
Mean anomaly
147.8579°
Eccentric anomaly
147.8626°
Mean motion
3.95481 °/min
Orbital period
91.03 mins
BSTAR
0.00015586
Loading maneuver chart data...
Computing Atmospheric mass density...
Loading historical data...
Loading historical data...
Loading historical data...
Loading historical data...
Loading historical data...
Loading historical data...
Loading historical data...

Documentation

Showing up to 5 results
|